Regional Weather Roundup
Issued by NWS

Home | Current Version | Previous Version | Graphics & Text | Print | Product List | Glossary On
Versions: 1 2 3 4 5 6 7 8 9 10 11 12 13 14 15 16 17 18 19 20 21 22 23 24 25 26 27 28 29 30 31 32 33 34 35 36 37 38 39 40 41 42 43 44 45 46 47 48 49 50
000
ASUS43 KLMK 191802
RWRKY
KENTUCKY REGIONAL WEATHER ROUNDUP
NATIONAL WEATHER SERVICE LOUISVILLE KY
200 PM EDT TUE AUG 19 2014

NOTE "FAIR" INDICATES FEW OR NO CLOUDS BELOW 12,000 FEET
WITH NO SIGNIFICANT WEATHER AND/OR OBSTRUCTIONS TO VISIBILITY.

KYZ001>023-026-027-061>063-070>075-191900-
WESTERN AND SOUTH CENTRAL KENTUCKY

CITY           SKY/WX    TMP DP  RH WIND       PRES   REMARKS
PADUCAH        SUNNY     90  75  61 SW8       29.85F HX 100
HENDERSON      PTSUNNY   88  73  62 SW6       29.84F HX  96
OWENSBORO      PTSUNNY   86  74  67 SW7       29.87F HX  94
HOPKINSVILLE   MOSUNNY   89  73  57 SW9       29.89F HX  97
BOWLING GREEN  MOSUNNY   85  69  58 VRB3      29.90F
GLASGOW        PTSUNNY   83  70  64 W5        29.91F
$$

KYZ024-025-028>034-038-045-046-053-191900-
NORTH CENTRAL KENTUCKY

CITY           SKY/WX    TMP DP  RH WIND       PRES   REMARKS
LOUISVILLE/SDF MOSUNNY   87  71  58 VRB7      29.87S HX  93
LOUISVILLE/LOU PTSUNNY   84  70  62 W6        29.87F
FORT KNOX      NOT AVBL
$$

KYZ035>037-039>044-047>052-055>060-089>105-191900-
NORTHEAST KENTUCKY

CITY           SKY/WX    TMP DP  RH WIND       PRES   REMARKS
LEXINGTON      MOSUNNY   84  70  62 SW6       29.90S
COVINGTON      MOSUNNY   85  68  56 S9G16     29.87F
FRANKFORT      MOSUNNY   83  69  62 VRB7      29.89R
$$

KYZ054-064>069-076>088-106>120-191900-
SOUTHEAST KENTUCKY

CITY           SKY/WX    TMP DP  RH WIND       PRES   REMARKS
JACKSON        PTSUNNY   80  69  69 W6        29.93S
LONDON         MOSUNNY   81  70  69 VRB6      29.93F
SOMERSET       CLOUDY    81  68  65 W7        29.92F
MIDDLESBORO    PTSUNNY   83  68  61 N5        29.93F
MONTICELLO     PTCLDY    84  72  67 W5        29.93F
$$




USA.gov is the U.S. government's official web portal to all federal, state and local government web resources and services.